Weather History for PHKO - February, 2014

Change the Weather History Date:

Thursday, February 20, 2014

  Actual Average Record
Temperature  
Mean Temperature 76 °F -  
Max Temperature 82 °F 79 °F 87 °F (1983)
Min Temperature 70 °F 66 °F 62 °F (1990)
Cooling Degree Days 11    
Growing Degree Days 26 (Base 50)    
Moisture  
Dew Point 68 °F    
Average Humidity 72    
Maximum Humidity 81    
Minimum Humidity 64    
Precipitation  
Precipitation 0.00 in - - ()
Sea Level Pressure  
Sea Level Pressure 29.91 in    
Wind  
Wind Speed 6 mph (WNW)    
Max Wind Speed 12 mph    
Max Gust Speed -    
Visibility 10 miles    
Events      
Averages and records for this station are not official NWS values.
T = Trace of Precipitation, MM = Missing Value Source: NWS Daily Summary

Daily Weather History Graph

Daily Weather History Graph

Search for Another Location

Airport or City:

Trip Planner

Search our weather history database for the weather conditions in past years. The results will help you decide how hot, cold, wet, or windy it might be!

Date:

Astronomy

Feb. 20, 2014 Rise Set
Actual Time 6:49 AM HST 6:26 PM HST
Civil Twilight 6:27 AM HST 6:48 PM HST
Nautical Twilight 6:01 AM HST 7:14 PM HST
Astronomical Twilight 5:36 AM HST 7:39 PM HST
Moon 11:39 PM HST (2/20) 10:28 AM HST (2/20)
Length of Visible Light 12h 20m
Length of Day
11h 36m
Waning Gibbous, 69% of the Moon is Illuminated
Feb 20
Waning Gibbous
Feb 22
Last Quarter
Feb 28
New
Mar 8
First Quarter
Mar 16
Full

Hourly Weather History & Observations

Time (HST) Temp. Heat Index Dew Point Humidity Pressure Visibility Wind Dir Wind Speed Gust Speed Precip Events Conditions
12:53 AM 75.0 °F - 68.0 °F 79% 29.95 in 10.0 mi ESE 4.6 mph - N/A   Partly Cloudy
1:53 AM 73.9 °F - 66.9 °F 79% 29.93 in 10.0 mi East 5.8 mph - N/A   Scattered Clouds
2:53 AM 73.9 °F - 66.9 °F 79% 29.91 in 10.0 mi East 4.6 mph - N/A   Clear
3:53 AM 73.0 °F - 66.0 °F 79% 29.91 in 10.0 mi NE 5.8 mph - N/A   Clear
4:53 AM 72.0 °F - 64.0 °F 76% 29.91 in 10.0 mi NNE 4.6 mph - N/A   Clear
5:53 AM 71.1 °F - 64.0 °F 78% 29.92 in 10.0 mi ENE 4.6 mph - N/A   Partly Cloudy
6:53 AM 70.0 °F - 64.0 °F 81% 29.93 in 10.0 mi NE 5.8 mph - N/A   Clear
7:53 AM 73.9 °F - 64.9 °F 73% 29.94 in 10.0 mi NE 5.8 mph - N/A   Clear
8:53 AM 79.0 °F - 66.0 °F 64% 29.94 in 10.0 mi NNW 4.6 mph - N/A   Clear
9:53 AM 80.1 °F 82.3 °F 66.9 °F 64% 29.94 in 10.0 mi West 6.9 mph - N/A   Clear
10:53 AM 81.0 °F 83.8 °F 68.0 °F 65% 29.94 in 10.0 mi WSW 9.2 mph - N/A   Clear
11:53 AM 82.0 °F 85.5 °F 69.1 °F 65% 29.92 in 10.0 mi SSW 9.2 mph - N/A   Clear
12:53 PM 82.0 °F 85.5 °F 69.1 °F 65% 29.89 in 10.0 mi SSW 9.2 mph - N/A   Clear
1:53 PM 81.0 °F 84.1 °F 69.1 °F 67% 29.87 in 10.0 mi SW 9.2 mph - N/A   Clear
2:53 PM 82.0 °F 85.9 °F 70.0 °F 67% 29.86 in 10.0 mi SSW 11.5 mph - N/A   Clear
3:53 PM 82.0 °F 85.9 °F 70.0 °F 67% 29.85 in 10.0 mi WSW 9.2 mph - N/A   Clear
4:53 PM 80.1 °F 83.2 °F 70.0 °F 71% 29.85 in 10.0 mi WSW 8.1 mph - N/A   Partly Cloudy
5:53 PM 79.0 °F - 69.1 °F 72% 29.86 in 10.0 mi WSW 5.8 mph - N/A   Scattered Clouds
6:53 PM 79.0 °F - 68.0 °F 69% 29.88 in 10.0 mi WSW 6.9 mph - N/A   Clear
7:53 PM 78.1 °F - 69.1 °F 74% 29.90 in 10.0 mi West 5.8 mph - N/A   Partly Cloudy
8:53 PM 78.1 °F - 69.1 °F 74% 29.91 in 10.0 mi Calm Calm - N/A   Scattered Clouds
9:15 PM 78.8 °F - 69.8 °F 74% 29.91 in 10.0 mi NNW 5.8 mph - N/A   Mostly Cloudy
9:23 PM 78.8 °F - 69.8 °F 74% 29.91 in 10.0 mi NW 6.9 mph - N/A   Mostly Cloudy
9:32 PM 78.8 °F - 69.8 °F 74% 29.91 in 10.0 mi NW 9.2 mph - N/A   Mostly Cloudy
9:40 PM 78.8 °F - 69.8 °F 74% 29.92 in 10.0 mi NW 9.2 mph - N/A   Overcast
9:53 PM 78.1 °F - 69.1 °F 74% 29.92 in 10.0 mi NW 8.1 mph - N/A   Overcast
10:53 PM 77.0 °F - 69.1 °F 76% 29.92 in 10.0 mi NNW 4.6 mph - N/A   Mostly Cloudy
11:19 PM 78.8 °F - 69.8 °F 74% 29.92 in 10.0 mi NNW 3.5 mph - N/A   Overcast
11:53 PM 78.1 °F - 69.1 °F 74% 29.92 in 10.0 mi West 4.6 mph - N/A   Overcast